TimeEDT,TemperatureF,Dew PointF,Humidity,Sea Level PressureIn,VisibilityMPH,Wind Direction,Wind SpeedMPH,Gust SpeedMPH,PrecipitationIn,Events,Conditions,WindDirDegrees,DateUTC
12:54 AM,48.9,48.0,97,29.93,10.0,Calm,Calm,-,N/A,,Clear,0,2012-10-17 04:54:00
1:54 AM,48.9,48.0,97,29.94,10.0,Calm,Calm,-,N/A,,Clear,0,2012-10-17 05:54:00
2:54 AM,46.9,46.0,97,29.93,7.0,Calm,Calm,-,N/A,,Clear,0,2012-10-17 06:54:00
3:54 AM,46.9,46.0,97,29.93,10.0,Calm,Calm,-,N/A,,Clear,0,2012-10-17 07:54:00
4:54 AM,46.0,45.0,96,29.95,7.0,Calm,Calm,-,N/A,,Clear,0,2012-10-17 08:54:00
5:54 AM,46.9,46.0,97,29.96,8.0,Calm,Calm,-,N/A,,Clear,0,2012-10-17 09:54:00
6:54 AM,48.0,46.9,96,29.96,9.0,Calm,Calm,-,N/A,,Clear,0,2012-10-17 10:54:00
7:54 AM,48.9,48.0,97,29.98,9.0,Calm,Calm,-,N/A,,Clear,0,2012-10-17 11:54:00
8:54 AM,52.0,50.0,93,30.00,10.0,Calm,Calm,-,N/A,,Clear,0,2012-10-17 12:54:00
9:54 AM,57.0,52.0,83,30.01,10.0,Calm,Calm,-,N/A,,Clear,0,2012-10-17 13:54:00
10:54 AM,62.1,52.0,70,30.02,10.0,Variable,3.5,-,N/A,,Clear,0,2012-10-17 14:54:00
11:54 AM,64.9,52.0,63,30.01,10.0,Calm,Calm,-,N/A,,Clear,0,2012-10-17 15:54:00
12:54 PM,66.9,50.0,54,30.00,10.0,Calm,Calm,-,N/A,,Clear,0,2012-10-17 16:54:00
1:54 PM,68.0,48.0,49,29.97,10.0,Calm,Calm,-,N/A,,Clear,0,2012-10-17 17:54:00
2:54 PM,69.1,46.9,45,29.96,10.0,SSW,3.5,-,N/A,,Clear,210,2012-10-17 18:54:00
3:54 PM,70.0,45.0,41,29.94,10.0,SE,5.8,-,N/A,,Clear,140,2012-10-17 19:54:00
4:54 PM,70.0,46.0,42,29.94,10.0,SSE,5.8,-,N/A,,Clear,150,2012-10-17 20:54:00
5:54 PM,68.0,46.9,47,29.94,10.0,SSE,3.5,-,N/A,,Clear,150,2012-10-17 21:54:00
6:54 PM,57.9,52.0,81,29.94,10.0,Calm,Calm,-,N/A,,Clear,0,2012-10-17 22:54:00
7:54 PM,54.0,51.1,90,29.96,10.0,Calm,Calm,-,N/A,,Clear,0,2012-10-17 23:54:00
8:54 PM,52.0,50.0,93,29.98,10.0,Calm,Calm,-,N/A,,Clear,0,2012-10-18 00:54:00
9:54 PM,52.0,51.1,97,29.97,10.0,Calm,Calm,-,N/A,,Clear,0,2012-10-18 01:54:00
10:54 PM,50.0,48.9,96,29.97,9.0,Calm,Calm,-,N/A,,Clear,0,2012-10-18 02:54:00
11:54 PM,50.0,48.9,96,29.95,8.0,Calm,Calm,-,N/A,,Clear,0,2012-10-18 03:54:00